Погода в Новоаннинском

Россия / Волгоградская область     50°31′46″N   42°40′00″E
темп.,
°C
ветер,
м/с
пор.,
м/с
влажн.,
%
обл.,
%
осадки,
мм/ч
давл.,
гПа
погр.,
м
15 августа, пн
пн1500:00+22всв5144279 0.0 1015294
03:00+20всв5125538 0.0 1016309
06:00+20всв5116028 0.0 1016246
09:00+28в683729 0.0 1016703
12:00+33в77243 0.0 10161909
15:00+34в77221 0.0 10152327
18:00+31в892986 0.0 10151177
21:00+25в815342 0.0 1017554
16 августа, вт
вт1600:00+23всв7152964 0.0 1017419
03:00+20всв5133552 0.0 1017329
06:00+18всв41048100 0.0 1017245
09:00+25всв5737100 0.0 1017568
12:00+31в5725100 0.0 10161545
15:00+33в6720100 0.0 10141866
18:00+32в71023100 0.0 1014773
21:00+29в71127100 0.0 1015442
17 августа, ср
ср1700:00+27в61329100 0.0 1014358
03:00+27в51027100 0.0 1015500
06:00+26в71427100 0.0 1013426
09:00+27всв51028100 0.0 1014676
12:00+33в8102216 0.0 10131684
15:00+33в91122100 0.0 10122191
18:00+31всв9122528 0.0 10111198
21:00+27всв91730100 0.0 1011651
18 августа, чт
чт1800:00+24всв91937100 0.0 1010482
03:00+24в7154198 0.1 1010478
06:00+21в61556100 0.4 1010371
09:00+23в51155100 2.6 1010394
12:00+26вюв51046100 1.1 1010625
15:00+24св81354100 1.1 1011406
18:00+25св8144338 0.0 1010553
21:00+24всв6134498 0.1 1010356
19 августа, пт
пт1900:00+22вюв4765100 2.1 1011117
03:00+24вюв61547100 2.1 1011395
06:00+24вюв61438100 0.0 1013464
09:00+30вюв91224100 0.0 10131199
12:00+32юв81320100 0.0 10132071
15:00+34юв121318100 0.0 10133487
18:00+31в111524100 0.0 10131186
21:00+27вюв12183068 0.0 1015820